Location: Halvern
(37.6252°N, 122.0525°W)
Time: 16:21:35
(UTC+00:00)

NOSS 0 Rocket - Pass Details

Date: 29 May 2024
Orbit: 934 x 954 km, 70.0° (Epoch: 17 June)

Event Time Altitude Azimuth Distance (km) Brightness Sun altitude
Rises 12:04:01 0° 327° (NNW) 3,628 7.0 -8.4°
Reaches altitude 10° 12:06:44 10° 320° (NW) 2,681 6.3 -8.0°
Maximum altitude 12:12:22 37° 255° (WSW) 1,441 4.5 -7.1°
Drops below altitude 10° 12:17:59 10° 190° (S) 2,672 5.9 -6.2°
Sets 12:20:41 0° 182° (S) 3,614 6.6 -5.7°
